CZ-6A DEB

Satellite information

Favourite Embed

Satellite Type and Status

DEBRISIN ORBIT

Key statistics

Satellite CZ-6A DEB at a glance.

Uptime

968

Days in orbit

Revolutions

≈ 14.3

Per day

Orbit

SSO

Sun Synchronous Orbit

Inclination

98.8

Latest

Satellite identification and parameters

Extended collection of information and parameters for CZ-6A DEB.

Object identification

Identified? True

Debris? True

Object name: CZ-6A DEB

International designator: 2022-151BZ

Object number (NORAD): 54330

Object ID (CCSDS): 54330

Country: PEOPLES REPUBLIC OF CHINA (PRC)

Current information (Y/N): Y

RCS size: SMALL

Orbital parameters

Period: 100.926 minutes

Inclination: 98.7787 deg

SMA: 7180.606 km

Apoapsis: 840.192 km

Periapsis: 764.75 km

RAAN: 204.1369 deg

Eccentricy: 0.0052532

Argument of periapsis: 255.4093 deg

Mean anomaly: 104.1258 deg

Mean motion: 14.26793549 rev/day

Mean motion (dot): 0.00001774 rev/day2

B* drag term: 0.00074005 1/REarth

Two-line elements (TLE)

Creation date: July 5, 2025, 5:45 p.m.

Reference frame: TEME

Reference center: EARTH

Epoch: July 5, 2025, 1:22 p.m. UTC

TLE line 0: 0 CZ-6A DEB

TLE line 1: 1 54330U 22151BZ 25186.55761998 .00001774 00000-0 74005-3 0 9996

TLE line 2: 2 54330 98.7787 204.1369 0052532 255.4093 104.1258 14.26793549136756

Live tracking on map

Real-time ground track for satellite CZ-6A DEB.

In-orbit conjunctions

A list of the most updated potential collisions computed for object CZ-6A DEB.

Target Orbit TCA Probability of collision Miss distance Type
COSMOS 1486 LEO 2025-04-04 15:12:16 0.0003981203 914.0 (m) PAYLOAD
HAIYANG 1 SSO 2025-03-15 09:10:15 0.0002831101 898.0 (m) PAYLOAD
CZ-6A DEB LEO 2024-12-24 01:16:55 0.0001828347 898.0 (m) DEBRIS

Associated space launch

Chinese satellite reported for atmospheric/ocean/environmental/spatial parameter research purposes, details TBD.

CZ-6A DEB was lifted into orbit during the mission ‘Long March 6A | Yunhai 3’, on board a Long March 6A space rocket.

The launch took place on Nov. 11, 2022, 10:52 p.m. from Launch Complex 9A.

For more information about the launch, click the button.

Launch to space Long March 6A | Yunhai 3
Long March 6A | Yunhai 3

Agency: N/A

Status: Launch Successful

Launch date: Nov. 11, 2022, 10:52 p.m. UTC

Rocket: Long March 6A

Launch pad: Launch Complex 9A

Location: Taiyuan Satellite Launch Center, People's Republic of China

...

Latest news about this satellite

There are no fresh news available about this satellite. Check back as we update our databases every day.


Newsletter sign-up

Weekly statistics, charts and insights to help you stay on top of the space industry.